| time (UTC) | temp F | wind direction | speed MPH | gust MPH | rain 1hr in | rain 24hr in | rain mn in | humidity % | barometer mb |
| 20260905030524 | 68 | 209 | 0.0 | 0.0 | 0.00 | 0.83 | 0.13 | 81 | 1012.9 |
| 20260905030031 | 69 | 209 | 0.0 | 0.0 | 0.00 | 0.83 | 0.13 | 81 | 1012.9 |
| 20260905025523 | 69 | 209 | 0.0 | 0.0 | 0.00 | 0.84 | 0.13 | 81 | 1012.9 |
| 20260905025024 | 69 | 209 | 0.0 | 0.0 | 0.00 | 0.84 | 0.13 | 81 | 1012.8 |
| 20260905024524 | 69 | 209 | 0.0 | 0.0 | 0.00 | 0.84 | 0.13 | 81 | 1012.8 |
| 20260905024023 | 69 | 209 | 0.0 | 0.0 | 0.00 | 0.84 | 0.13 | 81 | 1012.8 |
| 20260905023524 | 69 | 209 | 0.0 | 0.0 | 0.00 | 0.84 | 0.13 | 81 | 1012.8 |
| 20260905023030 | 69 | 209 | 0.0 | 0.0 | 0.00 | 0.84 | 0.13 | 81 | 1012.9 |
| 20260905022523 | 69 | 209 | 0.0 | 0.0 | 0.00 | 0.84 | 0.13 | 81 | 1012.8 |
| 20260905022022 | 69 | 209 | 0.0 | 0.0 | 0.00 | 0.84 | 0.13 | 82 | 1012.8 |
| 20260905021524 | 69 | 209 | 0.0 | 0.0 | 0.00 | 0.84 | 0.13 | 81 | 1012.9 |
| 20260905021022 | 69 | 209 | 0.0 | 0.0 | 0.00 | 0.84 | 0.13 | 81 | 1012.9 |
| 20260905020523 | 69 | 209 | 0.0 | 0.0 | 0.00 | 0.84 | 0.13 | 81 | 1012.9 |
| 20260905020022 | 69 | 209 | 0.0 | 0.0 | 0.00 | 0.84 | 0.13 | 81 | 1012.9 |
| 20260905015522 | 70 | 209 | 0.0 | 0.0 | 0.00 | 0.84 | 0.13 | 81 | 1013.0 |
| 20260905015024 | 70 | 209 | 0.0 | 0.0 | 0.00 | 0.84 | 0.13 | 81 | 1013.0 |
| 20260905014522 | 70 | 209 | 0.0 | 0.0 | 0.00 | 0.84 | 0.13 | 81 | 1013.1 |
| 20260905014021 | 70 | 209 | 0.0 | 0.0 | 0.00 | 0.84 | 0.13 | 81 | 1013.1 |
| 20260905013522 | 70 | 209 | 0.0 | 0.0 | 0.00 | 0.84 | 0.13 | 81 | 1013.2 |
| 20260905013021 | 70 | 209 | 0.0 | 0.0 | 0.00 | 0.84 | 0.13 | 81 | 1013.2 |
| 20260905012521 | 70 | 209 | 0.0 | 0.0 | 0.00 | 0.84 | 0.13 | 81 | 1013.1 |
| 20260905012021 | 70 | 209 | 0.0 | 0.0 | 0.00 | 0.84 | 0.13 | 80 | 1013.1 |
| 20260905011521 | 70 | 209 | 0.0 | 0.0 | 0.00 | 0.84 | 0.13 | 80 | 1013.1 |
| 20260905011023 | 70 | 209 | 0.0 | 0.0 | 0.00 | 0.84 | 0.13 | 80 | 1013.0 |
| 20260905010521 | 70 | 209 | 0.0 | 0.0 | 0.00 | 0.84 | 0.13 | 80 | 1013.0 |
| 20260905010020 | 70 | 209 | 0.0 | 0.0 | 0.00 | 0.84 | 0.13 | 79 | 1012.9 |
| 20260905005523 | 70 | 209 | 0.0 | 0.0 | 0.00 | 0.84 | 0.13 | 79 | 1012.8 |
| 20260905005024 | 70 | 209 | 0.0 | 0.0 | 0.00 | 0.84 | 0.13 | 79 | 1012.9 |
| 20260905004520 | 71 | 209 | 0.0 | 0.0 | 0.00 | 0.84 | 0.13 | 79 | 1012.8 |
| 20260905004020 | 71 | 209 | 0.0 | 0.0 | 0.00 | 0.84 | 0.13 | 78 | 1012.7 |
| 20260905003520 | 71 | 209 | 0.0 | 0.0 | 0.00 | 0.84 | 0.13 | 78 | 1012.7 |
| 20260905003020 | 71 | 209 | 0.0 | 0.0 | 0.00 | 0.84 | 0.13 | 77 | 1012.6 |
| 20260905002521 | 71 | 209 | 0.0 | 0.0 | 0.00 | 0.84 | 0.13 | 77 | 1012.6 |
| 20260905002019 | 71 | 209 | 0.0 | 0.0 | 0.00 | 0.84 | 0.13 | 77 | 1012.7 |
| 20260905001519 | 71 | 209 | 0.0 | 0.0 | 0.00 | 0.84 | 0.13 | 76 | 1012.5 |
| 20260905001019 | 72 | 209 | 0.0 | 0.0 | 0.00 | 0.84 | 0.13 | 76 | 1012.4 |
| 20260905000520 | 72 | 209 | 0.0 | 0.0 | 0.00 | 0.84 | 0.13 | 75 | 1012.4 |
| 20260905000019 | 72 | 209 | 0.0 | 0.0 | 0.00 | 0.84 | 0.13 | 75 | 1012.3 |
| 20260904235518 | 72 | 209 | 0.0 | 0.0 | 0.00 | 0.84 | 0.13 | 74 | 1012.3 |
| 20260904235023 | 73 | 209 | 0.0 | 0.0 | 0.00 | 0.84 | 0.13 | 74 | 1012.4 |
| 20260904234533 | 73 | 209 | 0.0 | 0.0 | 0.00 | 0.84 | 0.13 | 73 | 1012.3 |
| 20260904234020 | 73 | 209 | 0.0 | 0.0 | 0.00 | 0.84 | 0.13 | 73 | 1012.3 |
| 20260904233518 | 74 | 209 | 0.0 | 0.0 | 0.00 | 0.84 | 0.13 | 72 | 1012.2 |
| 20260904233018 | 74 | 209 | 0.0 | 0.0 | 0.00 | 0.84 | 0.13 | 72 | 1012.2 |
| 20260904232518 | 74 | 209 | 0.0 | 0.0 | 0.00 | 0.84 | 0.13 | 72 | 1012.2 |
| 20260904232017 | 75 | 209 | 0.0 | 0.0 | 0.00 | 0.84 | 0.13 | 71 | 1012.2 |
| 20260904231518 | 75 | 209 | 0.0 | 0.0 | 0.00 | 0.84 | 0.13 | 71 | 1012.3 |
| 20260904231017 | 75 | 209 | 0.0 | 0.0 | 0.00 | 0.84 | 0.13 | 70 | 1012.4 |
| 20260904230516 | 76 | 209 | 0.0 | 0.0 | 0.00 | 0.84 | 0.13 | 70 | 1012.2 |
| 20260904230017 | 76 | 209 | 0.0 | 0.0 | 0.00 | 0.84 | 0.13 | 69 | 1012.1 |
| 20260904225520 | 76 | 209 | 0.0 | 0.0 | 0.00 | 0.84 | 0.13 | 69 | 1012.1 |
| 20260904225017 | 77 | 209 | 0.0 | 0.0 | 0.00 | 0.84 | 0.13 | 68 | 1012.2 |
| 20260904224526 | 77 | 209 | 0.0 | 0.0 | 0.00 | 0.84 | 0.13 | 67 | 1012.1 |
| 20260904224015 | 78 | 209 | 0.0 | 0.0 | 0.00 | 0.84 | 0.13 | 66 | 1012.2 |
| 20260904223515 | 78 | 209 | 0.0 | 0.0 | 0.00 | 0.84 | 0.13 | 66 | 1012.2 |
| 20260904223015 | 78 | 210 | 0.0 | 2.0 | 0.00 | 0.84 | 0.13 | 65 | 1012.1 |
| 20260904222514 | 78 | 210 | 0.0 | 2.0 | 0.00 | 0.84 | 0.13 | 64 | 1012.2 |
| 20260904222014 | 79 | 210 | 0.0 | 2.0 | 0.00 | 0.84 | 0.13 | 64 | 1012.0 |
| 20260904221514 | 79 | 248 | 0.0 | 5.0 | 0.00 | 0.84 | 0.13 | 63 | 1012.1 |
| 20260904221014 | 79 | 248 | 2.0 | 5.0 | 0.00 | 0.84 | 0.13 | 61 | 1012.1 |
| 20260904220514 | 79 | 221 | 2.0 | 6.0 | 0.00 | 0.84 | 0.13 | 61 | 1012.0 |
| 20260904220113 | 80 | 272 | 1.0 | 4.0 | 0.00 | 0.84 | 0.13 | 64 | 1012.0 |
| 20260904215512 | 80 | 245 | 0.0 | 6.0 | 0.00 | 0.84 | 0.13 | 61 | 1011.9 |
| 20260904215012 | 80 | 233 | 2.0 | 6.0 | 0.00 | 0.84 | 0.13 | 60 | 1012.0 |
| 20260904214533 | 80 | 275 | 0.0 | 4.0 | 0.00 | 0.84 | 0.13 | 60 | 1011.9 |
| 20260904214014 | 80 | 230 | 0.0 | 6.0 | 0.00 | 0.84 | 0.13 | 59 | 1012.0 |
| 20260904213512 | 80 | 306 | 0.0 | 6.0 | 0.00 | 0.84 | 0.13 | 59 | 1012.0 |
| 20260904213012 | 80 | 256 | 3.0 | 6.0 | 0.00 | 0.84 | 0.13 | 59 | 1012.0 |
| 20260904212512 | 80 | 246 | 1.0 | 7.0 | 0.00 | 0.84 | 0.13 | 61 | 1012.0 |
| 20260904212014 | 80 | 246 | 3.0 | 7.0 | 0.00 | 0.84 | 0.13 | 60 | 1012.0 |
| 20260904211513 | 80 | 228 | 1.0 | 4.0 | 0.00 | 0.84 | 0.13 | 61 | 1012.1 |
| 20260904211011 | 80 | 242 | 0.0 | 3.0 | 0.00 | 0.84 | 0.13 | 62 | 1012.1 |
| 20260904210511 | 80 | 211 | 0.0 | 3.0 | 0.00 | 0.84 | 0.13 | 62 | 1012.2 |
| 20260904210011 | 80 | 246 | 1.0 | 4.0 | 0.00 | 0.84 | 0.13 | 60 | 1012.2 |
| 20260904205511 | 80 | 246 | 2.0 | 4.0 | 0.00 | 0.84 | 0.13 | 60 | 1012.3 |
| 20260904205012 | 80 | 246 | 1.0 | 3.0 | 0.00 | 0.84 | 0.13 | 59 | 1012.3 |
| 20260904204510 | 80 | 238 | 0.0 | 8.0 | 0.00 | 0.84 | 0.13 | 58 | 1012.3 |
| 20260904204011 | 80 | 237 | 1.0 | 8.0 | 0.00 | 0.84 | 0.13 | 58 | 1012.4 |
| 20260904203510 | 81 | 248 | 2.0 | 9.0 | 0.00 | 0.84 | 0.13 | 58 | 1012.4 |
| 20260904203010 | 81 | 240 | 1.0 | 8.0 | 0.00 | 0.84 | 0.13 | 57 | 1012.4 |
| 20260904202509 | 81 | 252 | 2.0 | 7.0 | 0.00 | 0.84 | 0.13 | 58 | 1012.4 |
| 20260904202014 | 80 | 268 | 1.0 | 4.0 | 0.00 | 0.84 | 0.13 | 60 | 1012.4 |
| 20260904201509 | 80 | 264 | 1.0 | 4.0 | 0.00 | 0.84 | 0.13 | 58 | 1012.4 |
| 20260904201009 | 80 | 265 | 0.0 | 8.0 | 0.00 | 0.84 | 0.13 | 58 | 1012.5 |
| 20260904200508 | 80 | 233 | 1.0 | 8.0 | 0.00 | 0.84 | 0.13 | 58 | 1012.6 |
| 20260904200022 | 81 | 338 | 3.0 | 8.0 | 0.00 | 0.84 | 0.13 | 56 | 1012.7 |
| 20260904195512 | 81 | 268 | 3.0 | 9.0 | 0.00 | 0.84 | 0.13 | 58 | 1012.7 |
| 20260904195009 | 81 | 263 | 3.0 | 9.0 | 0.00 | 0.84 | 0.13 | 56 | 1012.7 |
| 20260904194509 | 81 | 290 | 0.0 | 7.0 | 0.00 | 0.84 | 0.13 | 57 | 1012.8 |
| 20260904194008 | 81 | 263 | 2.0 | 7.0 | 0.00 | 0.84 | 0.13 | 57 | 1012.9 |
| 20260904193509 | 81 | 330 | 2.0 | 7.0 | 0.00 | 0.84 | 0.13 | 57 | 1012.9 |
| 20260904193008 | 81 | 254 | 3.0 | 7.0 | 0.00 | 0.84 | 0.13 | 58 | 1013.0 |
| 20260904192511 | 81 | 28 | 1.0 | 8.0 | 0.00 | 0.84 | 0.13 | 57 | 1012.9 |
| 20260904192007 | 81 | 350 | 1.0 | 9.0 | 0.00 | 0.84 | 0.13 | 56 | 1013.0 |
| 20260904191509 | 82 | 251 | 5.0 | 9.0 | 0.00 | 0.84 | 0.13 | 55 | 1013.0 |
| 20260904191007 | 82 | 5 | 3.0 | 12.0 | 0.00 | 0.84 | 0.13 | 55 | 1012.9 |
| 20260904190507 | 81 | 220 | 4.0 | 14.0 | 0.00 | 0.84 | 0.13 | 54 | 1012.9 |
| 20260904190006 | 82 | 269 | 5.0 | 14.0 | 0.00 | 0.84 | 0.13 | 54 | 1013.0 |
| 20260904185507 | 82 | 266 | 7.0 | 14.0 | 0.00 | 0.84 | 0.13 | 54 | 1013.1 |
| 20260904185005 | 81 | 242 | 3.0 | 9.0 | 0.00 | 0.84 | 0.13 | 56 | 1013.1 |
| 20260904184512 | 81 | 29 | 2.0 | 8.0 | 0.00 | 0.84 | 0.13 | 57 | 1013.1 |
| 20260904184004 | 81 | 328 | 0.0 | 10.0 | 0.00 | 0.84 | 0.13 | 57 | 1013.2 |
| 20260904183504 | 81 | 21 | 3.0 | 10.0 | 0.00 | 0.84 | 0.13 | 56 | 1013.2 |
| 20260904183003 | 81 | 310 | 4.0 | 10.0 | 0.00 | 0.84 | 0.13 | 56 | 1013.2 |
| 20260904182506 | 81 | 259 | 4.0 | 10.0 | 0.00 | 0.84 | 0.13 | 54 | 1013.3 |
| 20260904182001 | 81 | 265 | 0.0 | 10.0 | 0.00 | 0.84 | 0.13 | 56 | 1013.3 |
| 20260904181501 | 81 | 337 | 2.0 | 10.0 | 0.00 | 0.84 | 0.13 | 56 | 1013.4 |
| 20260904181100 | 80 | 31 | 2.0 | 9.0 | 0.00 | 0.84 | 0.13 | 57 | 1013.4 |
| 20260904180603 | 80 | 11 | 1.0 | 9.0 | 0.00 | 0.84 | 0.13 | 59 | 1013.5 |
| 20260904180107 | 80 | 212 | 3.0 | 9.0 | 0.00 | 0.84 | 0.13 | 59 | 1013.6 |
| 20260904175557 | 80 | 261 | 1.0 | 9.0 | 0.00 | 0.84 | 0.13 | 60 | 1013.6 |
| 20260904175056 | 79 | 5 | 3.0 | 9.0 | 0.00 | 0.84 | 0.13 | 59 | 1013.7 |
| 20260904174557 | 79 | 253 | 2.0 | 12.0 | 0.00 | 0.84 | 0.13 | 58 | 1013.9 |
| 20260904174054 | 79 | 313 | 3.0 | 8.0 | 0.00 | 0.84 | 0.13 | 61 | 1013.9 |
| 20260904173554 | 78 | 290 | 3.0 | 6.0 | 0.00 | 0.84 | 0.13 | 62 | 1013.7 |
| 20260904173059 | 78 | 240 | 2.0 | 13.0 | 0.00 | 0.84 | 0.13 | 63 | 1013.7 |
| 20260904172554 | 78 | 262 | 2.0 | 13.0 | 0.00 | 0.84 | 0.13 | 62 | 1013.8 |
| 20260904172054 | 78 | 300 | 3.0 | 9.0 | 0.00 | 0.84 | 0.13 | 62 | 1013.8 |
| 20260904171559 | 78 | 355 | 1.0 | 7.0 | 0.00 | 0.84 | 0.13 | 62 | 1013.9 |
| 20260904171052 | 78 | 294 | 0.0 | 10.0 | 0.00 | 0.84 | 0.13 | 64 | 1014.0 |
| 20260904170554 | 78 | 218 | 4.0 | 10.0 | 0.00 | 0.84 | 0.13 | 63 | 1014.0 |
| 20260904170054 | 78 | 260 | 4.0 | 8.0 | 0.00 | 0.84 | 0.13 | 63 | 1014.0 |
| 20260904165552 | 78 | 11 | 3.0 | 12.0 | 0.00 | 0.84 | 0.13 | 62 | 1014.1 |
| 20260904165053 | 79 | 318 | 4.0 | 12.0 | 0.00 | 0.84 | 0.13 | 63 | 1014.0 |
| 20260904164553 | 79 | 206 | 0.0 | 9.0 | 0.00 | 0.84 | 0.13 | 64 | 1013.9 |
| 20260904164053 | 79 | 240 | 2.0 | 9.0 | 0.00 | 0.84 | 0.13 | 63 | 1013.9 |
| 20260904163551 | 79 | 244 | 4.0 | 9.0 | 0.00 | 0.84 | 0.13 | 62 | 1013.8 |
| 20260904163058 | 79 | 346 | 2.0 | 7.0 | 0.00 | 0.84 | 0.13 | 65 | 1013.9 |
| 20260904162549 | 78 | 218 | 2.0 | 8.0 | 0.00 | 0.84 | 0.13 | 65 | 1014.0 |
| 20260904162042 | 78 | 277 | 2.0 | 8.0 | 0.00 | 0.84 | 0.13 | 66 | 1014.2 |
| 20260904161542 | 78 | 249 | 2.0 | 7.0 | 0.00 | 0.84 | 0.13 | 66 | 1014.1 |
| 20260904161042 | 78 | 244 | 3.0 | 7.0 | 0.00 | 0.84 | 0.13 | 66 | 1014.1 |
| 20260904160542 | 78 | 14 | 0.0 | 3.0 | 0.00 | 0.84 | 0.13 | 66 | 1014.1 |
| 20260904160043 | 78 | 345 | 0.0 | 6.0 | 0.00 | 0.84 | 0.13 | 65 | 1014.2 |
| 20260904155541 | 78 | 344 | 1.0 | 6.0 | 0.00 | 0.84 | 0.13 | 66 | 1014.1 |
| 20260904155041 | 78 | 271 | 1.0 | 7.0 | 0.00 | 0.84 | 0.13 | 67 | 1014.2 |
| 20260904154541 | 78 | 324 | 0.0 | 4.0 | 0.00 | 0.84 | 0.13 | 68 | 1014.1 |
| 20260904154040 | 78 | 355 | 1.0 | 10.0 | 0.00 | 0.84 | 0.13 | 67 | 1014.0 |
| 20260904153539 | 78 | 289 | 2.0 | 10.0 | 0.00 | 0.84 | 0.13 | 68 | 1014.0 |
| 20260904153048 | 77 | 271 | 3.0 | 5.0 | 0.00 | 0.84 | 0.13 | 68 | 1014.1 |
| 20260904152537 | 77 | 263 | 2.0 | 7.0 | 0.00 | 0.84 | 0.13 | 71 | 1014.2 |
| 20260904152039 | 76 | 285 | 3.0 | 7.0 | 0.00 | 0.84 | 0.13 | 70 | 1014.2 |
| 20260904151536 | 76 | 259 | 1.0 | 7.0 | 0.00 | 0.84 | 0.13 | 70 | 1014.1 |
| 20260904151036 | 76 | 226 | 2.0 | 7.0 | 0.00 | 0.84 | 0.13 | 70 | 1014.1 |
| 20260904150537 | 77 | 282 | 1.0 | 7.0 | 0.00 | 0.84 | 0.13 | 70 | 1014.1 |
| 20260904150041 | 77 | 232 | 0.0 | 8.0 | 0.00 | 0.84 | 0.13 | 70 | 1014.1 |
| 20260904145535 | 76 | 290 | 3.0 | 8.0 | 0.00 | 0.84 | 0.13 | 70 | 1014.2 |
| 20260904145033 | 76 | 302 | 1.0 | 8.0 | 0.00 | 0.84 | 0.13 | 71 | 1014.1 |
| 20260904144532 | 76 | 263 | 3.0 | 7.0 | 0.00 | 0.84 | 0.13 | 71 | 1014.2 |
| 20260904144030 | 76 | 319 | 0.0 | 8.0 | 0.00 | 0.84 | 0.13 | 72 | 1014.2 |
| 20260904143529 | 75 | 277 | 2.0 | 8.0 | 0.00 | 0.84 | 0.13 | 73 | 1014.2 |
| 20260904143027 | 75 | 261 | 0.0 | 9.0 | 0.00 | 0.84 | 0.13 | 73 | 1014.1 |
| 20260904142526 | 75 | 284 | 2.0 | 9.0 | 0.00 | 0.84 | 0.13 | 74 | 1014.2 |
| 20260904142024 | 74 | 281 | 3.0 | 10.0 | 0.00 | 0.84 | 0.13 | 75 | 1014.2 |
| 20260904141524 | 74 | 240 | 3.0 | 10.0 | 0.00 | 0.84 | 0.13 | 76 | 1014.3 |
| 20260904141023 | 73 | 136 | 4.0 | 8.0 | 0.00 | 0.84 | 0.13 | 80 | 1014.3 |
| 20260904140522 | 72 | 199 | 1.0 | 4.0 | 0.00 | 0.84 | 0.13 | 82 | 1014.3 |
| 20260904140021 | 72 | 305 | 1.0 | 4.0 | 0.00 | 0.84 | 0.13 | 84 | 1014.4 |
| 20260904135521 | 71 | 261 | 0.0 | 4.0 | 0.00 | 0.84 | 0.13 | 85 | 1014.2 |
| 20260904135020 | 71 | 257 | 1.0 | 6.0 | 0.00 | 0.84 | 0.13 | 86 | 1014.2 |
| 20260904134522 | 70 | 342 | 2.0 | 13.0 | 0.00 | 0.84 | 0.13 | 88 | 1014.3 |
| 20260904134020 | 70 | 215 | 2.0 | 13.0 | 0.00 | 0.84 | 0.13 | 89 | 1014.1 |
| 20260904133519 | 70 | 315 | 3.0 | 7.0 | 0.00 | 0.84 | 0.13 | 91 | 1014.1 |
| 20260904133019 | 69 | 327 | 0.0 | 7.0 | 0.00 | 0.84 | 0.13 | 92 | 1014.1 |
| 20260904132523 | 70 | 167 | 2.0 | 5.0 | 0.00 | 0.84 | 0.13 | 93 | 1014.1 |
| 20260904132018 | 69 | 164 | 0.0 | 0.0 | 0.00 | 0.84 | 0.13 | 93 | 1014.1 |
| 20260904131518 | 69 | 163 | 0.0 | 0.0 | 0.00 | 0.84 | 0.13 | 93 | 1014.0 |
| 20260904131017 | 69 | 242 | 0.0 | 0.0 | 0.00 | 0.84 | 0.13 | 93 | 1014.0 |
| 20260904130517 | 68 | 100 | 0.0 | 0.0 | 0.00 | 0.84 | 0.13 | 93 | 1014.1 |
| 20260904130017 | 68 | 281 | 0.0 | 0.0 | 0.00 | 0.84 | 0.13 | 93 | 1014.1 |
| 20260904125518 | 68 | 146 | 0.0 | 0.0 | 0.00 | 0.85 | 0.13 | 93 | 1014.1 |
| 20260904125017 | 67 | 146 | 0.0 | 0.0 | 0.00 | 0.85 | 0.13 | 93 | 1014.1 |
| 20260904124517 | 67 | 146 | 0.0 | 0.0 | 0.00 | 0.85 | 0.13 | 93 | 1014.2 |
| 20260904124016 | 67 | 148 | 0.0 | 0.0 | 0.00 | 0.85 | 0.13 | 93 | 1014.3 |
| 20260904123521 | 67 | 148 | 0.0 | 0.0 | 0.00 | 0.85 | 0.13 | 93 | 1014.3 |
| 20260904123016 | 67 | 148 | 0.0 | 0.0 | 0.00 | 0.85 | 0.13 | 93 | 1014.3 |
| 20260904122517 | 67 | 149 | 0.0 | 0.0 | 0.00 | 0.85 | 0.13 | 93 | 1014.3 |
| 20260904122015 | 67 | 149 | 0.0 | 0.0 | 0.00 | 0.85 | 0.13 | 93 | 1014.1 |
| 20260904121519 | 67 | 148 | 0.0 | 0.0 | 0.00 | 0.85 | 0.13 | 93 | 1014.1 |
| 20260904121014 | 67 | 148 | 0.0 | 0.0 | 0.00 | 0.85 | 0.13 | 93 | 1014.0 |
| 20260904120513 | 67 | 147 | 0.0 | 0.0 | 0.00 | 0.85 | 0.13 | 93 | 1014.1 |
| 20260904120016 | 67 | 147 | 0.0 | 0.0 | 0.00 | 0.85 | 0.13 | 92 | 1014.1 |
| 20260904115513 | 67 | 146 | 0.0 | 0.0 | 0.00 | 0.85 | 0.13 | 92 | 1014.0 |
| 20260904115013 | 67 | 146 | 0.0 | 2.0 | 0.00 | 0.85 | 0.13 | 92 | 1014.0 |
| 20260904114530 | 67 | 147 | 0.0 | 1.0 | 0.00 | 0.85 | 0.13 | 92 | 1014.0 |
| 20260904114012 | 67 | 147 | 0.0 | 3.0 | 0.00 | 0.85 | 0.13 | 92 | 1014.0 |
| 20260904113512 | 67 | 146 | 0.0 | 3.0 | 0.00 | 0.85 | 0.13 | 92 | 1013.9 |
| 20260904113011 | 68 | 149 | 0.0 | 3.0 | 0.00 | 0.85 | 0.13 | 92 | 1014.0 |
| 20260904112510 | 68 | 153 | 1.0 | 3.0 | 0.00 | 0.85 | 0.13 | 92 | 1014.0 |
| 20260904112011 | 68 | 230 | 1.0 | 5.0 | 0.00 | 0.85 | 0.13 | 92 | 1014.0 |
| 20260904111507 | 68 | 288 | 0.0 | 0.0 | 0.00 | 0.85 | 0.13 | 92 | 1013.9 |
| 20260904111006 | 69 | 231 | 0.0 | 0.0 | 0.00 | 0.85 | 0.13 | 92 | 1013.9 |
| 20260904110505 | 69 | 206 | 0.0 | 0.0 | 0.00 | 0.85 | 0.13 | 93 | 1013.9 |
| 20260904110012 | 69 | 207 | 0.0 | 0.0 | 0.00 | 0.85 | 0.13 | 93 | 1013.7 |
| 20260904105506 | 69 | 234 | 0.0 | 0.0 | 0.00 | 0.85 | 0.13 | 93 | 1013.6 |
| 20260904105003 | 69 | 130 | 0.0 | 0.0 | 0.00 | 0.85 | 0.13 | 93 | 1013.6 |
| 20260904104503 | 69 | 195 | 0.0 | 0.0 | 0.00 | 0.85 | 0.13 | 93 | 1013.6 |
| 20260904104002 | 69 | 195 | 0.0 | 0.0 | 0.00 | 0.85 | 0.13 | 93 | 1013.4 |
| 20260904103503 | 69 | 196 | 0.0 | 0.0 | 0.00 | 0.85 | 0.13 | 93 | 1013.5 |
| 20260904103001 | 69 | 196 | 0.0 | 0.0 | 0.00 | 0.85 | 0.13 | 93 | 1013.4 |
| 20260904102501 | 69 | 196 | 0.0 | 0.0 | 0.00 | 0.85 | 0.13 | 93 | 1013.4 |
| 20260904102100 | 69 | 196 | 0.0 | 0.0 | 0.00 | 0.85 | 0.13 | 93 | 1013.3 |
| 20260904101604 | 69 | 196 | 0.0 | 0.0 | 0.00 | 0.85 | 0.13 | 92 | 1013.3 |
| 20260904101059 | 69 | 195 | 0.0 | 0.0 | 0.00 | 0.85 | 0.13 | 92 | 1013.2 |
| 20260904100559 | 69 | 189 | 0.0 | 0.0 | 0.00 | 0.85 | 0.13 | 92 | 1013.2 |
| 20260904100059 | 69 | 188 | 0.0 | 0.0 | 0.00 | 0.85 | 0.13 | 92 | 1013.3 |
| 20260904095602 | 69 | 188 | 0.0 | 0.0 | 0.00 | 0.85 | 0.13 | 92 | 1013.3 |
| 20260904095058 | 69 | 153 | 0.0 | 0.0 | 0.00 | 0.85 | 0.13 | 92 | 1013.3 |
| 20260904094559 | 69 | 141 | 0.0 | 0.0 | 0.00 | 0.85 | 0.13 | 92 | 1013.2 |
| 20260904094058 | 69 | 142 | 0.0 | 0.0 | 0.00 | 0.85 | 0.13 | 93 | 1013.2 |
| 20260904093558 | 70 | 184 | 0.0 | 1.0 | 0.00 | 0.85 | 0.13 | 92 | 1013.2 |
| 20260904093057 | 70 | 198 | 0.0 | 2.0 | 0.00 | 0.85 | 0.13 | 92 | 1013.2 |
| 20260904092556 | 70 | 157 | 0.0 | 1.0 | 0.00 | 0.85 | 0.13 | 92 | 1013.1 |
| 20260904092100 | 70 | 159 | 0.0 | 3.0 | 0.00 | 0.85 | 0.13 | 92 | 1013.1 |
| 20260904091556 | 70 | 159 | 0.0 | 5.0 | 0.00 | 0.85 | 0.13 | 92 | 1013.2 |
| 20260904091056 | 70 | 138 | 0.0 | 5.0 | 0.00 | 0.85 | 0.13 | 92 | 1013.2 |
| 20260904090555 | 70 | 219 | 0.0 | 0.0 | 0.00 | 0.85 | 0.13 | 92 | 1013.2 |
| 20260904090054 | 70 | 179 | 0.0 | 0.0 | 0.00 | 0.85 | 0.13 | 92 | 1013.0 |
| 20260904085554 | 70 | 179 | 0.0 | 0.0 | 0.00 | 0.85 | 0.13 | 92 | 1012.9 |
| 20260904085054 | 70 | 179 | 0.0 | 0.0 | 0.00 | 0.85 | 0.13 | 92 | 1012.9 |
| 20260904084558 | 70 | 178 | 0.0 | 0.0 | 0.00 | 0.85 | 0.13 | 92 | 1013.0 |
| 20260904084053 | 70 | 178 | 0.0 | 0.0 | 0.00 | 0.85 | 0.13 | 92 | 1012.9 |
| 20260904083553 | 70 | 179 | 0.0 | 0.0 | 0.00 | 0.85 | 0.13 | 92 | 1012.8 |
| 20260904083057 | 70 | 179 | 0.0 | 0.0 | 0.00 | 0.85 | 0.13 | 92 | 1012.9 |
| 20260904082553 | 70 | 179 | 0.0 | 0.0 | 0.00 | 0.85 | 0.13 | 92 | 1012.7 |
| 20260904082053 | 70 | 179 | 0.0 | 0.0 | 0.00 | 0.85 | 0.13 | 92 | 1012.7 |
| 20260904081552 | 70 | 179 | 0.0 | 0.0 | 0.00 | 0.85 | 0.13 | 92 | 1012.6 |
| 20260904081051 | 70 | 178 | 0.0 | 0.0 | 0.00 | 0.85 | 0.13 | 92 | 1012.5 |
| 20260904080551 | 70 | 178 | 0.0 | 0.0 | 0.00 | 0.85 | 0.13 | 92 | 1012.3 |
| 20260904080051 | 70 | 180 | 0.0 | 0.0 | 0.00 | 0.85 | 0.13 | 92 | 1012.4 |
| 20260904075550 | 70 | 180 | 0.0 | 0.0 | 0.00 | 0.85 | 0.13 | 92 | 1012.3 |
| 20260904075050 | 70 | 180 | 0.0 | 0.0 | 0.00 | 0.85 | 0.13 | 92 | 1012.2 |
| 20260904074600 | 70 | 180 | 0.0 | 0.0 | 0.00 | 0.85 | 0.13 | 92 | 1012.2 |
| 20260904074049 | 70 | 180 | 0.0 | 0.0 | 0.00 | 0.85 | 0.13 | 92 | 1012.1 |
| 20260904073552 | 70 | 144 | 0.0 | 0.0 | 0.00 | 0.85 | 0.13 | 92 | 1011.8 |
| 20260904073050 | 71 | 144 | 0.0 | 0.0 | 0.00 | 0.85 | 0.13 | 92 | 1011.9 |
| 20260904072549 | 71 | 144 | 0.0 | 0.0 | 0.00 | 0.85 | 0.13 | 92 | 1011.9 |
| 20260904072047 | 71 | 145 | 0.0 | 0.0 | 0.00 | 0.85 | 0.13 | 92 | 1012.0 |
| 20260904071548 | 71 | 145 | 0.0 | 0.0 | 0.00 | 0.85 | 0.13 | 92 | 1012.1 |
| 20260904071046 | 71 | 145 | 0.0 | 0.0 | 0.00 | 0.85 | 0.13 | 92 | 1012.1 |
| 20260904070548 | 71 | 144 | 0.0 | 0.0 | 0.00 | 0.85 | 0.13 | 92 | 1012.0 |
| 20260904070046 | 71 | 144 | 0.0 | 0.0 | 0.00 | 0.85 | 0.13 | 92 | 1012.2 |
| 20260904065649 | 71 | 92 | 0.0 | 0.0 | 0.00 | 0.85 | 0.13 | 92 | 1012.2 |
| 20260904065044 | 71 | 92 | 0.0 | 0.0 | 0.00 | 0.85 | 0.13 | 92 | 1012.2 |
| 20260904064544 | 71 | 92 | 0.0 | 0.0 | 0.00 | 0.85 | 0.13 | 92 | 1012.1 |
| 20260904064044 | 71 | 92 | 0.0 | 0.0 | 0.00 | 0.85 | 0.13 | 92 | 1012.1 |
| 20260904063544 | 71 | 92 | 0.0 | 0.0 | 0.00 | 0.85 | 0.13 | 92 | 1012.2 |
| 20260904063054 | 71 | 92 | 0.0 | 0.0 | 0.00 | 0.85 | 0.13 | 92 | 1012.1 |
| 20260904062548 | 72 | 92 | 0.0 | 0.0 | 0.00 | 0.85 | 0.13 | 92 | 1012.0 |
| 20260904062042 | 72 | 23 | 0.0 | 0.0 | 0.00 | 0.85 | 0.13 | 92 | 1012.0 |
| 20260904061541 | 72 | 16 | 0.0 | 0.0 | 0.00 | 0.85 | 0.13 | 92 | 1012.1 |
| 20260904061040 | 72 | 16 | 0.0 | 0.0 | 0.00 | 0.85 | 0.13 | 92 | 1012.2 |
| 20260904060539 | 72 | 16 | 0.0 | 0.0 | 0.00 | 0.85 | 0.13 | 92 | 1012.2 |
| 20260904060104 | 72 | 336 | 0.0 | 1.0 | 0.00 | 0.85 | 0.13 | 92 | 1012.3 |
| 20260904055538 | 72 | 336 | 0.0 | 1.0 | 0.00 | 0.85 | 0.13 | 92 | 1012.2 |
| 20260904055038 | 72 | 336 | 0.0 | 0.0 | 0.00 | 0.85 | 0.13 | 91 | 1012.3 |
| 20260904054539 | 72 | 336 | 0.0 | 0.0 | 0.00 | 0.85 | 0.13 | 92 | 1012.3 |
| 20260904054037 | 72 | 336 | 0.0 | 0.0 | 0.00 | 0.85 | 0.13 | 92 | 1012.4 |
| 20260904053537 | 72 | 336 | 0.0 | 0.0 | 0.00 | 0.85 | 0.13 | 92 | 1012.4 |
| 20260904053037 | 72 | 336 | 0.0 | 0.0 | 0.00 | 0.85 | 0.13 | 91 | 1012.4 |
| 20260904052537 | 72 | 336 | 0.0 | 0.0 | 0.00 | 0.85 | 0.13 | 91 | 1012.4 |
| 20260904052037 | 72 | 336 | 0.0 | 0.0 | 0.00 | 0.85 | 0.13 | 91 | 1012.4 |
| 20260904051535 | 72 | 336 | 0.0 | 0.0 | 0.01 | 0.85 | 0.13 | 91 | 1012.5 |
| 20260904051036 | 72 | 336 | 0.0 | 0.0 | 0.01 | 0.85 | 0.13 | 91 | 1012.4 |
| 20260904050534 | 72 | 336 | 0.0 | 0.0 | 0.02 | 0.85 | 0.13 | 91 | 1012.4 |
| 20260904050034 | 72 | 336 | 0.0 | 2.0 | 0.11 | 0.85 | 0.13 | 91 | 1012.5 |
| 20260904045533 | 72 | 336 | 0.0 | 2.0 | 0.33 | 0.91 | 0.13 | 91 | 1012.8 |
| 20260904045034 | 72 | 169 | 0.0 | 0.0 | 0.39 | 0.91 | 0.13 | 91 | 1012.7 |
| 20260904044542 | 72 | 169 | 0.0 | 2.0 | 0.56 | 0.91 | 0.13 | 91 | 1012.6 |
| 20260904044033 | 72 | 169 | 0.0 | 2.0 | 0.59 | 0.91 | 0.13 | 91 | 1012.6 |
| 20260904043533 | 73 | 169 | 0.0 | 0.0 | 0.60 | 0.91 | 0.13 | 91 | 1012.7 |
| 20260904043034 | 73 | 169 | 0.0 | 1.0 | 0.61 | 0.91 | 0.13 | 91 | 1012.7 |
| 20260904042532 | 73 | 169 | 0.0 | 4.0 | 0.63 | 0.91 | 0.13 | 91 | 1012.8 |
| 20260904042031 | 73 | 171 | 3.0 | 7.0 | 0.65 | 0.91 | 0.13 | 91 | 1012.6 |
| 20260904041530 | 73 | 155 | 3.0 | 7.0 | 0.65 | 0.90 | 0.12 | 90 | 1012.5 |
| 20260904041030 | 73 | 148 | 2.0 | 5.0 | 0.74 | 0.90 | 0.12 | 90 | 1012.6 |
| 20260904040528 | 73 | 360 | 1.0 | 8.0 | 0.80 | 0.88 | 0.10 | 91 | 1012.6 |
| 20260904040025 | 74 | 118 | 3.0 | 8.0 | 0.72 | 0.80 | 0.02 | 91 | 1012.7 |
| 20260904035525 | 74 | 153 | 0.0 | 5.0 | 0.50 | 0.68 | 0.56 | 90 | 1013.2 |
| 20260904035025 | 74 | 103 | 0.0 | 8.0 | 0.45 | 0.63 | 0.52 | 90 | 1012.8 |
| 20260904034524 | 74 | 253 | 3.0 | 5.0 | 0.26 | 0.44 | 0.33 | 90 | 1013.2 |
| 20260904034024 | 74 | 184 | 0.0 | 0.0 | 0.25 | 0.43 | 0.32 | 90 | 1012.7 |
| 20260904033524 | 74 | 184 | 0.0 | 0.0 | 0.24 | 0.42 | 0.31 | 90 | 1012.5 |
| 20260904033023 | 74 | 182 | 0.0 | 0.0 | 0.23 | 0.41 | 0.30 | 90 | 1012.4 |
| 20260904032524 | 74 | 182 | 0.0 | 0.0 | 0.21 | 0.39 | 0.28 | 90 | 1012.3 |
| 20260904032023 | 74 | 182 | 0.0 | 0.0 | 0.19 | 0.37 | 0.26 | 89 | 1012.5 |
| 20260904031522 | 74 | 184 | 0.0 | 0.0 | 0.18 | 0.36 | 0.25 | 89 | 1012.4 |
| 20260904031021 | 73 | 184 | 0.0 | 0.0 | 0.08 | 0.26 | 0.15 | 89 | 1012.5 |